TimeAST,TemperatureF,Dew PointF,Humidity,Sea Level PressureIn,VisibilityMPH,Wind Direction,Wind SpeedMPH,Gust SpeedMPH,PrecipitationIn,Events,Conditions,WindDirDegrees,DateUTC
12:00 AM,80.6,75.2,84,29.86,6.2,ESE,12.7,-,N/A,,Partly Cloudy,110,2012-11-07 04:00:00
1:00 AM,80.6,75.2,84,29.86,6.2,East,9.2,-,N/A,,Partly Cloudy,80,2012-11-07 05:00:00
2:00 AM,80,74,79,29.84,16,East,9.2,,,,Scattered Clouds,90,2012-11-07 06:00:00
2:00 AM,80.6,75.2,84,29.83,6.2,East,9.2,-,N/A,,Partly Cloudy,90,2012-11-07 06:00:00
3:00 AM,78.8,75.2,89,29.83,6.2,East,8.1,-,N/A,,Partly Cloudy,90,2012-11-07 07:00:00
4:00 AM,78.8,75.2,89,29.83,6.2,East,5.8,-,N/A,,Partly Cloudy,90,2012-11-07 08:00:00
5:00 AM,79,74,82,29.85,16,East,5.8,,,,Scattered Clouds,80,2012-11-07 09:00:00
5:00 AM,78.8,75.2,89,29.83,6.2,East,5.8,-,N/A,,Partly Cloudy,80,2012-11-07 09:00:00
6:00 AM,78.8,73.4,83,29.86,6.2,Calm,Calm,-,N/A,,Partly Cloudy,0,2012-11-07 10:00:00
7:00 AM,80.6,75.2,84,29.89,-9999.0,North,-9999.0,-,N/A,,Partly Cloudy,0,2012-11-07 11:00:00
8:00 AM,84.2,75.2,74,29.89,6.2,East,11.5,-,N/A,,Partly Cloudy,100,2012-11-07 12:00:00
9:00 AM,86.0,75.2,70,29.92,6.2,ESE,11.5,-,N/A,,Partly Cloudy,120,2012-11-07 13:00:00
10:00 AM,86.0,77.0,74,29.92,6.2,SE,15.0,-,N/A,,Partly Cloudy,130,2012-11-07 14:00:00
11:00 AM,86.0,77.0,74,29.89,6.2,SE,16.1,-,N/A,,Partly Cloudy,130,2012-11-07 15:00:00
12:00 PM,87.8,77.0,70,29.86,6.2,ESE,17.3,-,N/A,,Partly Cloudy,110,2012-11-07 16:00:00
1:00 PM,87.8,77.0,70,29.83,6.2,SE,13.8,-,N/A,,Partly Cloudy,130,2012-11-07 17:00:00
2:00 PM,87.8,77.0,70,29.83,6.2,Calm,Calm,-,N/A,,Scattered Clouds,0,2012-11-07 18:00:00
3:00 PM,87.8,77.0,70,29.83,6.2,West,3.5,-,N/A,,Partly Cloudy,270,2012-11-07 19:00:00
4:00 PM,87.8,75.2,66,29.80,6.2,ESE,11.5,-,N/A,,Partly Cloudy,120,2012-11-07 20:00:00
5:00 PM,85,73,59,29.83,19,East,11.5,,,,Scattered Clouds,100,2012-11-07 21:00:00
5:00 PM,86.0,73.4,66,29.83,6.2,East,11.5,-,N/A,,Partly Cloudy,100,2012-11-07 21:00:00
6:00 PM,82.4,75.2,79,29.83,6.2,East,4.6,-,N/A,,Partly Cloudy,80,2012-11-07 22:00:00
7:00 PM,80.6,77.0,89,29.83,6.2,East,3.5,-,N/A,,Partly Cloudy,90,2012-11-07 23:00:00
8:00 PM,81,76,80,29.87,16,East,4.6,,,,Scattered Clouds,80,2012-11-08 00:00:00
8:00 PM,80.6,77.0,89,29.86,6.2,East,4.6,-,N/A,,Partly Cloudy,80,2012-11-08 00:00:00
9:00 PM,78.8,75.2,89,29.89,6.2,Calm,Calm,-,N/A,,Partly Cloudy,0,2012-11-08 01:00:00
10:00 PM,78.8,75.2,89,29.89,6.2,Calm,Calm,-,N/A,,Partly Cloudy,0,2012-11-08 02:00:00
11:00 PM,80,75,80,29.89,12,East,6.9,,,,Scattered Clouds,100,2012-11-08 03:00:00
11:00 PM,80.6,75.2,84,29.89,6.2,East,6.9,-,N/A,,Partly Cloudy,100,2012-11-08 03:00:00